Location: Aalen
(48.8330°N, 10.1000°E)
Time: 09:32:30
(UTC+02:00)

COSMOS 2251 DEB - Visible Passes

Search period start: 23 September 2023 00:00
Search period end: 03 October 2023 00:00
Orbit: 651 x 803 km, 74.0° (Epoch: 22 September)

Date Brightness Start Highest point End Pass type
(mag) Time Alt. Az. Time Alt. Az. Time Alt. Az.
23 Sep ? 00:35:25 10° N 00:37:11 14° NNE 00:37:11 14° NNE visible
23 Sep ? 02:15:19 10° NNW 02:16:34 17° NNW 02:16:34 17° NNW visible
24 Sep ? 01:26:13 10° N 01:27:44 18° N 01:27:44 18° N visible
25 Sep ? 00:37:21 10° N 00:38:55 16° NNE 00:38:55 16° NNE visible
25 Sep ? 02:17:49 10° NNW 02:18:18 13° NNW 02:18:18 13° NNW visible
25 Sep ? 23:49:02 10° NNE 23:50:08 12° NNE 23:50:08 12° NNE visible
26 Sep ? 01:28:31 10° NNW 01:29:30 15° NNW 01:29:30 15° NNW visible
27 Sep ? 00:39:26 10° N 00:40:43 16° N 00:40:43 16° N visible
27 Sep ? 23:50:39 10° N 23:51:58 14° NNE 23:51:58 14° NNE visible
28 Sep ? 01:30:53 10° NNW 01:31:20 12° NNW 01:31:20 12° NNW visible
28 Sep ? 23:02:52 10° NNE 23:03:11 10° NNE 23:03:11 10° NNE visible
29 Sep ? 00:41:36 10° NNW 00:42:34 15° N 00:42:34 15° N visible
29 Sep ? 23:52:34 10° N 23:53:49 15° N 23:53:49 15° N visible
30 Sep ? 23:03:53 10° N 23:05:03 13° NNE 23:05:03 13° NNE visible
01 Oct ? 00:43:47 10° NNW 00:44:25 13° NNW 00:44:25 13° NNW visible
01 Oct ? 23:54:32 10° N 23:55:40 16° N 23:55:40 16° N visible
02 Oct ? 23:05:33 10° N 23:06:54 15° NNE 23:06:54 15° NNE visible
